TimeCST,TemperatureF,Dew PointF,Humidity,Sea Level PressureIn,VisibilityMPH,Wind Direction,Wind SpeedMPH,Gust SpeedMPH,PrecipitationIn,Events,Conditions,WindDirDegrees,DateUTC
12:53 AM,70.0,64.9,84,29.62,9.0,SSE,15.0,21.9,0.00,,Overcast,150,2013-02-21 06:53:00
1:53 AM,70.0,64.9,84,29.60,9.0,SSE,13.8,23.0,N/A,,Overcast,150,2013-02-21 07:53:00
2:53 AM,70.0,66.0,87,29.60,9.0,SSE,8.1,20.7,N/A,,Overcast,160,2013-02-21 08:53:00
3:53 AM,70.0,64.9,84,29.58,9.0,SE,9.2,18.4,N/A,,Overcast,140,2013-02-21 09:53:00
5:53 AM,70.0,66.0,87,29.59,7.0,South,3.5,-,N/A,,Overcast,170,2013-02-21 11:53:00
6:53 AM,69.1,64.9,87,29.62,7.0,South,4.6,-,N/A,,Overcast,180,2013-02-21 12:53:00
7:53 AM,68.0,64.9,90,29.66,5.0,Calm,Calm,-,N/A,,Mostly Cloudy,0,2013-02-21 13:53:00
8:53 AM,71.1,66.0,84,29.69,6.0,SSW,6.9,-,N/A,,Haze,210,2013-02-21 14:53:00
9:24 AM,69.8,59.0,68,29.73,7.0,NW,15.0,26.5,N/A,,Mostly Cloudy,320,2013-02-21 15:24:00
9:31 AM,69.8,57.2,64,29.74,7.0,NW,19.6,28.8,N/A,,Scattered Clouds,320,2013-02-21 15:31:00
9:39 AM,66.2,48.2,52,29.74,6.0,NNW,19.6,28.8,N/A,,Haze,340,2013-02-21 15:39:00
9:53 AM,66.9,48.0,51,29.73,7.0,NNW,17.3,25.3,N/A,,Clear,340,2013-02-21 15:53:00
10:53 AM,69.1,46.0,44,29.75,9.0,NNW,11.5,20.7,N/A,,Mostly Cloudy,340,2013-02-21 16:53:00
11:53 AM,71.1,37.0,29,29.76,10.0,NW,9.2,19.6,N/A,,Overcast,320,2013-02-21 17:53:00
12:53 PM,73.9,35.1,24,29.75,10.0,NW,10.4,-,N/A,,Scattered Clouds,310,2013-02-21 18:53:00
1:53 PM,75.9,30.0,19,29.71,10.0,WNW,10.4,18.4,N/A,,Clear,300,2013-02-21 19:53:00
2:53 PM,77.0,28.9,17,29.70,10.0,West,8.1,19.6,N/A,,Clear,280,2013-02-21 20:53:00
3:53 PM,78.1,25.0,14,29.69,10.0,West,9.2,-,N/A,,Clear,270,2013-02-21 21:53:00
4:53 PM,78.1,25.0,14,29.69,10.0,WNW,10.4,-,N/A,,Clear,290,2013-02-21 22:53:00
5:53 PM,75.9,24.1,15,29.72,10.0,NNW,4.6,-,N/A,,Clear,330,2013-02-21 23:53:00
6:53 PM,72.0,19.9,14,29.76,10.0,NNW,4.6,-,N/A,,Clear,340,2013-02-22 00:53:00
7:53 PM,66.9,21.9,18,29.77,10.0,NNE,4.6,-,N/A,,Clear,20,2013-02-22 01:53:00
8:53 PM,66.9,21.9,18,29.79,10.0,North,6.9,-,N/A,,Clear,350,2013-02-22 02:53:00
9:53 PM,64.0,21.9,20,29.80,10.0,North,6.9,-,N/A,,Clear,10,2013-02-22 03:53:00
10:53 PM,63.0,21.9,21,29.82,10.0,North,4.6,-,N/A,,Clear,10,2013-02-22 04:53:00
11:53 PM,51.1,30.0,44,29.85,10.0,SE,4.6,-,N/A,,Clear,130,2013-02-22 05:53:00